Tracking 21607 objects as of 23-Oct-2020
HD Live streaming from Space Station
objects crossing your sky now

TSIKADA

Track TSIKADA now!
10-day predictions
TSIKADA is classified as:


NORAD ID: 23463
Int'l Code: 1995-002A
Perigee: 968.2 km
Apogee: 1,027.3 km
Inclination: 82.9 °
Period: 104.9 minutes
Semi major axis: 7368 km
RCS: 1.4564 m2 (large)
Launch date: January 24, 1995
Source: Commonwealth of Independent States (former USSR) (CIS)
Launch site: PLESETSK MISSILE AND SPACE COMPLEX (PKMTR)
aabbcc
Your satellite tracking list
Your tracking list is empty




NASA's NSSDC Master Catalog

Two Line Element Set (TLE):
1 23463U 95002A   20296.93648612 +.00000034 +00000-0 +19859-4 0  9995
2 23463 082.9238 101.4527 0040102 109.2269 043.9518 13.72511898289417
Source of the keplerian elements: AFSPC